Temperature
15 15 15 14 14 14 15 15 15 15 15 15 15 16 16 16 16 16 16 17 17 17 17 17 17 17 17 17 17 17 17 17 17 17 17 17 17 17 17 18 18 18 18
14 14 14 14 14 14 14 14 15 15 15 15 15 15 15 16 16 16 16 16 17 17 17 17 17 17 17 17 17 17 17 17 17 17 17 17 17 17 17 17 18 18 18
14 14 14 14 14 14 14 14 15 15 15 15 15 15 15 15 15 16 16 16 16 17 17 17 17 17 17 17 17 17 17 17 17 17 17 17 17 17 17 17 17 17 17
14 14 14 14 14 14 14 14 14 14 15 15 15 15 15 15 15 15 15 16 16 16 16 17 17 17 17 17 17 17 17 17 17 17 17 17 17 17 17 17 17 17 17
14 14 13 13 13 13 14 14 14 14 14 14 15 15 15 15 15 15 15 16 16 16 16 16 17 17 17 17 17 17 17 17 17 17 17 17 17 17 17 17 17 17 17
14 13 13 13 13 13 13 13 13 13 14 14 15 15 15 15 15 15 15 15 16 16 16 16 16 17 17 17 17 17 17 17 17 17 17 17 17 17 17 17 17 17 17
13 13 13 13 13 13 13 13 13 13 13 14 14 15 15 15 15 15 15 15 15 16 16 16 16 16 16 17 17 17 17 17 17 17 17 17 17 17 17 17 17 17 17
13 13 13 13 13 13 13 13 13 13 13 13 14 15 15 15 15 15 15 15 15 15 15 16 16 16 16 16 17 17 17 17 17 17 17 17 17 17 17 17 17 17 17
13 13 13 13 13 13 13 13 13 13 13 13 14 14 15 16 15 15 15 15 15 15 15 15 15 16 16 16 16 17 17 17 17 17 17 17 17 17 17 17 17 17 17
13 13 13 13 13 13 13 13 13 13 13 13 13 14 14 14 15 15 15 15 15 15 15 15 15 15 15 16 16 16 16 16 17 17 17 17 17 17 17 17 17 17 17
13 13 13 13 13 13 13 13 13 13 13 13 13 13 13 14 14 15 15 15 15 15 15 15 15 15 15 15 16 16 16 16 16 16 16 16 16 16 17 17 17 17 17
13 13 13 13 13 13 13 13 13 13 13 13 13 13 13 14 14 14 15 15 15 14 14 15 15 15 15 15 15 16 16 16 16 16 16 16 16 16 16 16 17 17 17
14 13 13 13 13 13 13 13 13 13 13 13 13 13 13 13 13 14 14 14 14 14 14 14 15 15 15 15 15 16 16 16 16 16 16 16 16 16 16 16 16 16 16
14 13 13 13 13 13 13 13 13 12 12 13 13 13 13 13 13 13 13 14 14 15 14 14 14 15 15 15 15 15 15 16 16 16 16 16 16 16 16 16 16 16 16
14 14 13 13 13 13 13 13 13 13 12 13 13 13 13 13 13 13 13 13 14 15 15 14 14 14 14 14 15 15 15 15 16 16 16 16 16 16 16 16 16 16 16
14 14 14 13 13 13 13 13 13 13 13 13 13 13 13 13 13 13 13 13 13 14 14 14 14 14 14 14 14 15 15 15 15 16 16 16 16 16 16 16 16 16 16
14 14 13 13 13 13 13 13 13 13 13 13 12 12 12 12 13 13 13 13 13 13 14 14 14 14 14 14 14 14 14 15 15 15 15 15 15 15 15 15 15 15 15
14 14 14 13 13 13 13 13 13 13 13 13 13 12 12 13 13 13 13 13 13 13 13 13 14 14 13 13 14 14 14 14 14 15 15 15 15 15 15 15 15 15 15
14 14 14 13 13 13 13 13 13 13 13 13 13 13 13 13 13 13 13 13 13 13 13 13 13 13 13 13 13 14 14 14 14 14 14 15 15 15 15 15 15 15 15
14 14 14 14 13 13 13 13 13 13 13 13 13 13 13 13 13 13 13 13 13 13 13 13 13 13 13 13 13 13 14 14 14 14 14 14 14 14 14 14 14 14 14
14 14 14 14 14 14 13 13 13 13 13 13 13 13 13 13 13 13 13 13 13 13 13 13 13 13 13 13 13 13 13 13 13 13 13 14 14 14 14 14 14 14 14
15 14 14 14 14 14 14 14 13 13 13 13 13 13 13 13 13 13 13 13 13 13 13 13 13 13 13 13 13 13 13 13 13 13 13 13 13 13 13 13 14 14 14
15 15 14 14 14 14 14 14 14 13 13 13 13 13 13 13 13 13 13 13 13 13 13 13 13 13 13 13 13 13 13 13 13 13 13 13 13 13 13 13 13 14 14
14 15 14 14 14 14 14 14 14 13 13 13 13 13 13 13 13 13 13 12 13 13 13 13 13 13 12 13 13 13 13 13 13 13 13 13 13 13 13 13 13 13 13
14 14 14 14 14 14 14 14 14 13 13 13 13 13 13 13 13 13 13 12 12 13 13 13 13 13 13 13 13 13 12 12 12 12 12 12 12 12 12 12 12 12 13
14 14 14 14 14 14 14 14 14 13 13 13 13 13 13 13 13 13 13 13 12 12 12 13 13 13 13 13 13 12 12 12 12 12 12 12 12 12 12 12 12 12 12
Wind_Speed
4 4 4 4 5 5 4 4 5 4 4 4 4 4 3 3 3 3 1 2 1 2 2 2 3 3 3 2 3 4 4 6 7 7 9 10 10 11 12 12 13 13 13
4 4 5 4 5 5 5 5 5 4 4 3 4 3 4 4 3 3 3 2 2 0 1 2 2 3 4 3 3 5 5 6 7 8 10 11 10 10 11 13 13 13 13
5 5 5 5 5 5 5 5 5 4 4 3 4 3 3 3 4 3 3 3 3 4 3 2 2 3 4 4 4 5 6 7 7 9 11 11 10 10 11 13 13 13 12
5 5 4 5 5 5 5 4 5 4 4 3 3 3 2 2 3 3 3 3 3 2 4 4 2 3 4 5 5 6 6 7 8 9 10 10 10 10 11 13 13 13 12
5 4 4 5 5 4 4 4 4 4 4 3 3 3 2 2 2 2 2 2 2 2 3 5 4 3 4 5 5 6 7 8 9 10 11 10 10 11 12 13 13 13 13
5 5 4 5 5 4 4 4 4 3 4 3 3 2 2 2 1 2 2 2 2 3 3 3 4 5 5 5 5 6 7 8 10 11 11 11 11 11 11 12 13 13 12
4 4 4 5 5 4 5 5 4 3 3 3 3 2 2 1 0 1 1 2 1 2 2 2 3 3 5 7 5 5 5 7 9 11 12 12 12 12 11 11 12 13 12
4 4 5 4 4 4 4 4 3 3 2 2 3 2 2 2 1 0 0 1 1 1 2 2 2 3 3 5 6 5 4 6 8 10 11 12 12 13 12 12 12 12 12
3 4 5 5 5 4 4 4 3 3 3 2 2 3 2 1 1 1 0 0 0 1 1 1 1 2 3 4 6 7 6 6 7 9 10 12 13 13 13 12 12 12 12
3 4 4 5 4 4 4 4 3 3 3 3 2 2 3 2 1 1 2 1 1 0 1 1 1 2 3 3 4 5 6 6 7 8 9 11 12 13 13 13 13 12 12
2 3 4 4 4 4 4 4 3 3 2 3 2 2 2 2 3 2 1 1 1 1 1 0 1 1 1 2 4 5 6 6 6 6 6 8 10 12 13 13 13 13 12
2 3 3 4 4 3 3 3 3 2 2 2 3 2 2 2 1 2 2 2 1 1 1 0 1 1 1 1 3 5 7 7 7 6 6 7 8 10 12 12 13 13 13
3 3 3 4 4 3 3 3 3 2 2 2 2 2 2 2 2 2 2 2 2 1 1 1 1 1 1 1 2 3 6 7 7 7 7 8 8 9 10 12 12 12 13
3 4 4 3 3 3 3 3 3 3 2 2 2 2 2 2 2 2 2 2 2 2 2 2 1 1 1 1 1 3 6 7 7 8 8 9 9 9 9 10 11 11 12
4 4 4 3 3 3 3 3 3 3 3 3 3 3 3 2 2 2 3 3 3 3 2 2 2 1 1 1 0 2 3 6 7 8 8 9 9 9 8 9 10 10 10
4 4 4 4 3 3 3 3 3 3 3 2 2 3 3 3 2 2 2 2 3 3 2 1 1 1 1 1 2 2 2 5 7 8 8 8 9 8 8 8 8 9 10
4 4 4 4 3 3 3 3 4 3 3 3 3 3 3 3 3 3 3 3 3 3 3 2 1 1 1 2 1 1 2 3 5 7 7 8 7 7 8 8 8 9 9
5 5 5 4 4 3 4 4 4 3 3 3 2 3 3 3 3 3 3 3 3 4 4 3 2 1 2 2 2 2 2 2 2 6 7 7 7 7 7 8 8 8 8
6 5 5 5 5 5 4 4 4 4 4 4 3 3 3 3 4 3 4 4 4 4 4 4 2 1 2 2 2 3 3 2 2 5 7 8 7 7 8 8 8 8 8
6 6 6 6 6 6 5 5 5 5 5 4 4 4 4 4 4 4 4 4 4 4 4 4 4 3 2 2 3 3 2 2 3 4 4 4 7 9 9 9 9 9 9
7 7 7 7 6 6 5 6 6 6 5 5 5 5 5 4 4 4 4 4 4 4 4 4 4 4 3 3 3 3 3 2 2 3 3 3 4 5 7 9 9 9 9
7 7 7 7 7 6 4 6 7 7 6 6 6 6 5 6 7 7 6 6 6 6 5 5 5 5 5 4 3 4 3 3 2 2 2 2 3 3 4 4 6 8 9
7 8 8 8 9 7 5 7 9 8 8 7 7 6 5 5 7 7 9 10 9 9 8 7 6 6 5 5 5 5 5 4 3 2 2 2 2 2 2 3 7 8 8
7 8 8 9 8 7 6 8 9 10 9 8 7 7 7 6 6 7 7 8 8 8 8 8 7 6 5 4 5 5 4 3 2 2 3 2 2 1 1 2 6 7 7
8 8 8 9 9 9 7 8 9 8 8 9 8 7 8 7 4 5 8 8 7 6 4 4 3 2 1 1 3 4 4 4 3 3 2 2 2 1 1 2 4 6 6
8 8 8 9 10 10 7 8 10 8 9 8 7 7 6 7 5 7 8 8 8 6 6 6 6 7 6 6 7 7 6 5 3 3 3 3 2 1 1 1 2 3 4
Wind_Direction
332 337 325 327 318 322 313 308 302 310 300 292 288 283 279 270 265 266 222 105 345 299 241 228 209 203 200 179 162 147 134 133 129 137 147 140 136 137 139 140 139 135 135
337 334 330 328 324 322 319 308 303 302 295 292 284 285 284 283 276 268 263 195 171 227 257 224 196 191 189 178 162 152 146 142 139 133 140 140 139 140 143 149 145 141 142
336 336 331 331 330 322 313 308 304 297 291 284 272 274 276 280 280 274 261 257 215 173 170 193 184 184 181 170 162 156 157 155 148 142 139 141 142 143 147 149 146 146 148
343 339 332 333 334 327 318 310 302 294 286 287 285 279 277 270 274 281 256 238 242 227 167 151 162 177 182 176 165 162 164 162 157 153 148 149 149 149 152 151 149 151 153
339 338 336 334 335 330 325 319 316 308 300 300 289 271 276 279 290 287 276 262 241 230 207 149 161 165 169 170 169 174 172 170 169 164 158 158 156 154 156 156 154 155 155
342 338 331 334 336 330 331 323 316 306 300 292 290 294 284 278 277 292 300 283 251 229 214 186 177 160 153 159 169 179 181 176 174 170 166 167 167 164 162 161 160 158 159
339 339 329 337 335 335 329 322 318 306 296 296 276 267 235 217 257 288 294 286 248 231 205 196 196 174 161 157 162 174 177 178 178 175 171 171 171 171 170 167 167 166 167
335 333 334 330 333 328 325 325 319 308 307 295 282 267 242 191 164 147 282 264 258 207 195 191 187 180 186 166 151 162 176 183 180 177 176 177 176 174 173 172 172 174 176
333 333 332 327 328 326 332 325 316 307 305 304 304 293 278 264 175 159 92 234 230 212 201 204 215 199 186 176 165 160 172 187 184 180 181 183 182 178 177 179 179 181 184
328 329 325 321 321 326 326 321 325 305 296 295 286 290 304 325 282 197 166 161 132 159 187 208 226 214 201 184 169 150 165 182 184 185 186 187 185 183 183 185 183 183 183
320 325 323 321 320 319 325 326 323 309 295 296 296 288 277 274 272 273 212 182 163 139 143 202 225 239 211 194 188 170 173 180 178 183 191 192 191 188 187 187 186 186 187
312 332 325 319 316 319 319 318 315 307 299 296 292 289 287 283 290 271 247 210 191 150 141 157 244 255 241 202 192 161 178 180 181 182 190 196 199 196 194 192 191 191 194
310 329 325 321 322 318 316 311 298 300 286 286 287 285 286 291 306 286 261 239 217 193 172 177 171 223 238 206 172 173 184 188 187 188 191 196 199 202 203 198 196 197 199
308 319 314 318 317 313 307 299 290 286 281 274 274 269 267 273 281 276 267 258 233 209 196 178 157 168 258 238 125 221 193 186 195 200 199 201 201 201 203 203 202 203 202
296 303 301 306 306 302 302 297 286 286 280 276 272 259 258 256 257 269 272 268 260 233 203 174 183 154 233 224 155 229 210 176 195 202 201 204 202 200 202 204 202 202 202
286 293 297 299 294 285 286 289 288 293 279 265 268 266 262 252 247 250 260 266 274 272 245 177 184 163 225 222 179 235 214 174 188 194 199 197 192 194 196 196 199 201 202
273 282 288 292 293 285 277 274 282 283 277 266 252 249 244 246 238 230 237 250 257 258 245 237 220 235 216 216 196 221 214 198 178 178 188 190 188 189 194 197 200 200 201
268 275 279 280 283 281 279 278 279 275 270 270 259 246 239 227 233 235 229 236 243 248 246 240 227 235 243 215 210 216 219 204 191 161 182 187 185 189 196 200 203 199 197
265 265 267 271 273 274 273 269 270 270 266 266 260 250 249 237 228 223 226 230 234 236 242 237 231 238 245 222 213 212 205 202 210 171 179 188 188 191 195 200 202 202 201
261 264 263 264 268 268 266 265 262 263 261 255 252 249 248 245 242 234 227 228 230 231 230 226 223 226 229 229 221 215 210 193 207 191 180 185 184 190 194 197 200 203 204
257 260 264 262 262 263 264 268 263 261 262 258 250 245 243 249 281 270 256 240 229 230 226 225 222 224 221 216 220 220 219 201 193 189 192 194 188 194 192 195 199 201 202
253 255 258 259 260 257 253 254 263 263 260 259 257 251 238 228 228 229 245 256 261 248 236 226 227 226 225 221 222 224 217 213 208 183 211 210 202 205 201 198 177 184 193
250 253 254 254 255 251 231 239 242 258 260 261 261 255 246 237 231 233 219 219 232 244 256 254 242 238 235 223 220 221 220 228 231 191 209 214 197 205 195 167 164 185 190
252 250 252 253 254 251 229 235 236 247 254 253 251 251 249 245 236 241 235 230 229 224 226 236 244 247 241 233 230 232 229 224 220 192 203 214 203 206 188 164 152 170 180
258 254 253 252 251 247 224 228 235 246 247 247 246 245 247 243 210 229 238 235 230 223 204 234 294 284 6 234 235 212 203 208 214 198 200 217 196 212 208 172 141 156 165
259 260 256 253 252 254 226 219 232 245 245 244 241 237 232 245 221 216 235 235 231 225 215 203 207 206 211 198 208 220 215 217 219 210 181 203 198 198 209 169 159 162 160
Height
1524 1522 1521 1519 1519 1517 1517 1515 1515 1514 1514 1513 1513 1513 1514 1514 1515 1515 1515 1515 1516 1517 1518 1518 1519 1519 1520 1520 1520 1520 1520 1520 1520 1519 1520 1523 1526 1529 1531 1533 1535 1537 1538
1523 1521 1520 1519 1517 1516 1515 1514 1514 1513 1513 1512 1512 1512 1512 1512 1513 1513 1514 1514 1514 1516 1517 1517 1518 1519 1520 1520 1520 1521 1521 1522 1521 1519 1518 1523 1527 1530 1532 1534 1537 1539 1541
1522 1521 1519 1518 1517 1515 1514 1513 1513 1512 1512 1511 1511 1511 1511 1511 1511 1512 1512 1513 1514 1514 1515 1516 1517 1518 1519 1520 1521 1522 1522 1523 1523 1523 1523 1526 1529 1531 1534 1536 1538 1540 1542
1521 1519 1518 1517 1515 1514 1513 1512 1512 1511 1511 1510 1510 1510 1510 1509 1510 1510 1511 1511 1512 1514 1514 1515 1516 1517 1518 1520 1521 1522 1523 1524 1525 1526 1527 1529 1531 1533 1535 1537 1540 1542 1544
1520 1519 1517 1516 1515 1513 1512 1511 1511 1510 1510 1509 1509 1508 1508 1508 1508 1509 1509 1510 1511 1512 1514 1514 1515 1516 1518 1519 1520 1522 1523 1525 1526 1527 1529 1531 1533 1534 1536 1538 1541 1543 1545
1519 1518 1517 1516 1514 1513 1511 1510 1510 1508 1508 1508 1508 1507 1507 1507 1507 1508 1508 1509 1510 1511 1512 1513 1515 1515 1517 1518 1520 1521 1523 1525 1526 1528 1530 1531 1533 1535 1537 1539 1541 1543 1545
1519 1517 1516 1515 1513 1512 1511 1510 1509 1508 1507 1507 1507 1507 1506 1506 1506 1506 1507 1508 1509 1510 1511 1512 1514 1515 1516 1517 1519 1521 1522 1524 1526 1528 1529 1531 1534 1536 1538 1540 1542 1544 1546
1518 1517 1516 1514 1513 1511 1510 1508 1507 1507 1506 1506 1506 1506 1506 1507 1506 1506 1506 1507 1508 1509 1510 1511 1513 1514 1515 1517 1518 1519 1521 1523 1525 1527 1529 1531 1533 1535 1537 1539 1541 1544 1546
1517 1516 1514 1513 1512 1511 1509 1508 1507 1506 1506 1506 1506 1506 1506 1505 1505 1506 1506 1506 1507 1508 1509 1510 1511 1512 1514 1515 1517 1518 1520 1522 1524 1526 1528 1530 1532 1535 1537 1539 1541 1543 1545
1517 1515 1514 1512 1511 1510 1509 1507 1506 1505 1505 1505 1505 1505 1505 1505 1505 1505 1506 1505 1506 1507 1508 1509 1510 1511 1512 1514 1515 1517 1519 1521 1523 1525 1527 1529 1531 1533 1535 1538 1540 1542 1544
1516 1515 1513 1512 1510 1509 1508 1506 1505 1505 1504 1504 1504 1504 1504 1504 1505 1505 1505 1505 1506 1506 1506 1507 1508 1510 1511 1512 1514 1515 1517 1519 1521 1523 1525 1527 1529 1532 1534 1536 1538 1540 1542
1516 1515 1513 1511 1510 1509 1507 1506 1505 1504 1504 1503 1503 1504 1504 1504 1504 1504 1504 1505 1505 1506 1506 1506 1507 1508 1509 1511 1512 1514 1516 1518 1520 1522 1523 1525 1528 1530 1532 1534 1536 1538 1540
1516 1514 1513 1511 1509 1508 1506 1505 1504 1504 1503 1503 1502 1503 1503 1503 1503 1503 1504 1504 1505 1505 1505 1505 1506 1507 1508 1510 1511 1512 1514 1516 1518 1520 1522 1524 1526 1528 1530 1532 1534 1536 1537
1515 1514 1512 1510 1509 1507 1506 1505 1504 1503 1503 1502 1502 1501 1501 1502 1502 1502 1503 1504 1504 1504 1505 1505 1505 1506 1507 1508 1509 1510 1512 1513 1515 1517 1519 1521 1523 1525 1527 1529 1531 1533 1535
1514 1512 1511 1510 1508 1507 1505 1504 1504 1503 1502 1501 1501 1501 1500 1501 1500 1501 1501 1502 1504 1504 1504 1504 1504 1505 1506 1507 1507 1509 1510 1511 1513 1515 1517 1519 1521 1522 1524 1526 1527 1530 1532
1512 1511 1510 1509 1508 1506 1505 1504 1503 1502 1501 1500 1499 1499 1499 1499 1499 1500 1500 1501 1502 1503 1503 1503 1503 1504 1504 1505 1506 1507 1508 1509 1511 1513 1514 1516 1518 1519 1521 1523 1525 1526 1528
1511 1510 1509 1508 1507 1506 1505 1503 1502 1501 1500 1500 1499 1498 1498 1498 1498 1499 1499 1499 1500 1501 1502 1502 1502 1503 1503 1503 1504 1505 1506 1508 1509 1510 1512 1514 1515 1517 1518 1520 1521 1523 1525
1509 1509 1508 1507 1506 1505 1504 1503 1501 1500 1499 1499 1498 1498 1497 1497 1497 1497 1498 1498 1499 1499 1501 1501 1501 1501 1502 1502 1502 1503 1505 1506 1507 1507 1509 1511 1512 1514 1515 1516 1518 1519 1521
1507 1507 1506 1505 1504 1503 1502 1501 1500 1500 1499 1498 1497 1497 1496 1496 1496 1496 1496 1497 1497 1498 1498 1499 1500 1500 1500 1501 1501 1502 1503 1503 1504 1505 1506 1507 1509 1510 1512 1513 1515 1516 1518
1505 1504 1504 1503 1502 1501 1500 1500 1499 1498 1497 1497 1496 1495 1495 1495 1495 1495 1495 1495 1495 1496 1496 1497 1498 1498 1499 1499 1500 1500 1502 1502 1502 1503 1504 1505 1506 1508 1509 1510 1512 1513 1515
1502 1501 1501 1500 1500 1499 1498 1498 1497 1496 1496 1495 1494 1494 1493 1493 1493 1493 1493 1493 1493 1494 1494 1495 1496 1496 1497 1497 1498 1499 1500 1500 1500 1501 1502 1503 1504 1505 1506 1507 1509 1510 1512
1498 1498 1498 1497 1497 1496 1495 1495 1495 1494 1494 1493 1493 1492 1491 1490 1490 1490 1490 1490 1491 1492 1493 1493 1493 1494 1495 1495 1496 1496 1497 1498 1499 1499 1500 1501 1501 1502 1504 1505 1506 1507 1508
1495 1494 1494 1493 1493 1493 1492 1492 1491 1491 1491 1491 1490 1490 1489 1488 1488 1488 1487 1488 1488 1489 1489 1490 1491 1492 1492 1493 1493 1494 1495 1496 1496 1497 1497 1498 1499 1500 1501 1502 1502 1504 1505
1491 1490 1490 1490 1489 1489 1488 1488 1488 1488 1488 1487 1487 1486 1486 1485 1485 1485 1485 1485 1486 1486 1486 1487 1488 1489 1489 1490 1490 1492 1492 1493 1494 1494 1495 1496 1497 1498 1498 1498 1499 1500 1501
1487 1486 1485 1485 1484 1484 1484 1484 1484 1484 1484 1483 1483 1482 1482 1482 1482 1481 1482 1482 1483 1483 1483 1483 1484 1484 1485 1486 1487 1489 1489 1491 1492 1492 1493 1494 1494 1495 1495 1496 1496 1497 1498
1482 1482 1481 1480 1480 1480 1479 1479 1480 1480 1480 1480 1479 1479 1478 1478 1478 1478 1479 1479 1480 1480 1480 1480 1481 1481 1482 1483 1484 1485 1487 1488 1489 1490 1490 1491 1492 1492 1493 1493 1493 1494 1494